Flag for Canada Weather past 2 weeks in Stonewall, Manitoba, Canada

Now
73 °F

Scattered clouds.


Feels Like: 77 °F
Forecast: 52 / 74 °F
Wind: 6 mph from North

Location: Winnipeg Int. Airportman.

Current Time: Jul 28, 2014 at 2:31:33 PM

Latest Report: Jul 28, 2014 at 2:00 PM


Visibility: 15 mi

Pressure: 30.25 "Hg

Humidity: 53%

Dew point: 55 °F

Location of StonewallLocation

Historic Weather in Stonewall — Graph

°F

Stonewall temperature yesterday

Maximum temperature yesterday: 70 °F (at 2:00 PM)
Minimum temperature yesterday: 54 °F (at 11:00 PM)
Average temperature yesterday: 63 °F

Past Weeks' High & Low Weather Summary

 TemperatureHumidityPressure
High88 °F (Jul 20, 2:00 PM)100% (Jul 15, 1:00 AM)30.35 "Hg (Jul 15, 1:00 AM)
Low45 °F (Jul 15, 5:00 AM)34% (Jul 25, 4:00 PM)29.51 "Hg (Jul 20, 1:00 PM)
Average66 °F71%29.92 "Hg
* Reported Jul 13 1:00 PM — Jul 28 1:00 PM, Stonewall, Weather by CustomWeather, © 2014

Note: Actual official high and low records may vary slightly from our data, if they occured in-between our weather recording intervals... More about our weather records

Advertising

Stonewall weather history for previous 24 hours

 ConditionsComfort  
Time TempWeatherWind HumidityBarometerVisibility
1:00 PM
Jul 28
73 °FScattered clouds.12 mph47%30.26 "Hg15 mi
12:00 PM72 °FPassing clouds.12 mph50%30.28 "Hg15 mi
11:00 AM70 °FPassing clouds.10 mph57%30.29 "Hg15 mi
10:00 AM68 °FPassing clouds.10 mph60%30.29 "Hg15 mi
9:00 AM63 °FScattered clouds.7 mph83%30.29 "Hg15 mi
8:00 AM55 °FScattered clouds.7 mph88%30.28 "Hg15 mi
7:00 AM50 °FPassing clouds.6 mph94%30.28 "Hg15 mi
6:00 AM46 °FPassing clouds.8 mph93%30.27 "Hg15 mi
5:00 AM46 °FPassing clouds.8 mph100%30.26 "Hg15 mi
4:00 AM48 °FClear.6 mph100%30.26 "Hg15 mi
3:00 AM48 °FPassing clouds.6 mph94%30.25 "Hg15 mi
2:00 AM48 °FClear.8 mph94%30.24 "Hg15 mi
1:00 AM50 °FClear.6 mph100%30.24 "Hg15 mi
12:00 AM52 °FClear.6 mph94%30.24 "Hg15 mi
11:00 PM
Jul 27
54 °FPassing clouds.7 mph94%30.23 "Hg15 mi
10:00 PM57 °FPassing clouds.6 mph88%30.23 "Hg15 mi
9:00 PM61 °FPassing clouds.7 mph83%30.21 "Hg15 mi
8:00 PM66 °FScattered clouds.10 mph64%30.20 "Hg15 mi
7:00 PM68 °FBroken clouds.8 mph56%30.20 "Hg15 mi
6:00 PM68 °FScattered clouds.10 mph56%30.20 "Hg15 mi
5:00 PM68 °FPartly sunny.13 mph53%30.20 "Hg15 mi
4:00 PM70 °FPartly sunny.16 mph50%30.20 "Hg15 mi
3:00 PM70 °FBroken clouds.12 mph50%30.18 "Hg15 mi
2:00 PM70 °FScattered clouds.14 mph53%30.18 "Hg15 mi
Weather by CustomWeather, © 2014

See weather overviewHow to use our weather pages